Location: Angwan Shehu
(11.2514°N, 7.4613°E)
Time: 01:40:30
(UTC+00:00)

Tiros 1 - Pass Details

Date: 25 April 2021
Orbit: 630 x 664 km, 48.4° (Epoch: 06 May)

Event Time Altitude Azimuth Distance (km) Brightness Sun altitude
Rises 13:44:40 0° 342° (NNW) 2,902 10.7 56.6°
Reaches altitude 10° 13:47:33 10° 360° (N) 1,996 9.9 55.9°
Maximum altitude 13:50:51 19° 46° (NE) 1,482 9.0 55.1°
Drops below altitude 10° 13:54:10 10° 92° (E) 2,004 9.4 54.3°
Sets 13:57:02 0° 110° (ESE) 2,917 10.2 53.6°
